Memphis, TN

11:37 AM CDT on August 23, 2017 (GMT -0500)
Memphis International

Weather History for KMEM - May, 2013

Change the Weather History Date:

Saturday, May 4, 2013

  Actual Average Record
Temperature  
Mean Temperature 47 °F 68 °F  
Max Temperature 58 °F 78 °F 91 °F (2012)
Min Temperature 36 °F 59 °F 36 °F (2013)
Degree Days  
Heating Degree Days 18 1  
Month to date heating degree days 32 5  
Since 1 July heating degree days 2908 2950  
Cooling Degree Days 0 5  
Month to date cooling degree days 9 17  
Year to date cooling degree days 85 112  
Moisture  
Dew Point 39 °F    
Average Humidity 72    
Maximum Humidity 92    
Minimum Humidity 51    
Precipitation  
Precipitation 0.12 in 0.19 in 4.29 in (1914)
Month to date precipitation 4.00 0.75  
Year to date precipitation 27.83 19.78  
Snow  
Snow 0.00 in 0.00 in - ()
Month to date snowfall 0.0 0.0  
Since 1 July snowfall 0.9 3.8  
Snow Depth 0.00 in    
Sea Level Pressure  
Sea Level Pressure 29.93 in    
Wind  
Wind Speed 5 mph (SSW)    
Max Wind Speed 23 mph    
Max Gust Speed 32 mph    
Visibility 10 miles    
Events Rain    
T = Trace of Precipitation, MM = Missing Value Source: NWS Daily Summary

Daily Weather History Graph

Daily Weather History Graph

Search for Another Location

Airport or City:

Trip Planner

Search our weather history database for the weather conditions in past years. The results will help you decide how hot, cold, wet, or windy it might be!

Date:

Astronomy

May. 04, 2013 Rise Set
Actual Time 6:05 AM CDT 7:48 PM CDT
Civil Twilight 5:38 AM CDT 8:15 PM CDT
Nautical Twilight 5:05 AM CDT 8:48 PM CDT
Astronomical Twilight 4:30 AM CDT 9:23 PM CDT
Moon 2:52 AM CDT (5/4) 2:57 PM CDT (5/4)
Length of Visible Light 14h 37m
Length of Day
13h 42m
Waning Crescent, 27% of the Moon is Illuminated
May 4
Waning Crescent
May 9
New
May 17
First Quarter
May 24
Full
May 31
Last Quarter

Hourly Weather History & Observations

Time (CDT) Temp. Windchill Dew Point Humidity Pressure Visibility Wind Dir Wind Speed Gust Speed Precip Events Conditions
12:54 AM 37.0 °F - 36.0 °F 96% 29.98 in 10.0 mi Calm Calm - N/A   Partly Cloudy
1:54 AM 37.0 °F 32.4 °F 34.0 °F 89% 29.96 in 10.0 mi South 5.8 mph - N/A   Partly Cloudy
2:54 AM 37.0 °F 32.4 °F 35.1 °F 93% 29.93 in 10.0 mi SSW 5.8 mph - N/A   Partly Cloudy
3:54 AM 37.0 °F 32.4 °F 34.0 °F 89% 29.92 in 10.0 mi SW 5.8 mph - N/A   Partly Cloudy
4:47 AM 37.4 °F 33.8 °F 35.6 °F 93% 29.93 in 10.0 mi SSW 4.6 mph - N/A   Partly Cloudy
4:54 AM 37.0 °F 34.5 °F 35.1 °F 93% 29.93 in 10.0 mi WSW 3.5 mph - N/A   Partly Cloudy
5:54 AM 36.0 °F 32.1 °F 34.0 °F 93% 29.94 in 10.0 mi South 4.6 mph - N/A   Scattered Clouds
6:54 AM 37.9 °F - 36.0 °F 93% 29.95 in 10.0 mi Calm Calm - N/A   Scattered Clouds
7:54 AM 43.0 °F 38.8 °F 39.0 °F 86% 29.96 in 10.0 mi SSW 6.9 mph - N/A   Scattered Clouds
8:54 AM 46.9 °F - 37.9 °F 71% 29.96 in 10.0 mi SW 5.8 mph - N/A   Scattered Clouds
9:54 AM 48.9 °F - 37.9 °F 66% 29.96 in 10.0 mi Variable 6.9 mph - N/A   Scattered Clouds
10:54 AM 53.1 °F - 39.9 °F 61% 29.96 in 10.0 mi WSW 8.1 mph - N/A   Scattered Clouds
11:54 AM 53.1 °F - 37.9 °F 57% 29.94 in 10.0 mi South 3.5 mph - N/A   Scattered Clouds
12:30 PM 55.4 °F - 39.2 °F 54% 29.92 in 10.0 mi WSW 8.1 mph - N/A   Mostly Cloudy
12:54 PM 55.0 °F - 37.9 °F 53% 29.91 in 10.0 mi Variable 5.8 mph - N/A   Mostly Cloudy
1:36 PM 55.4 °F - 37.4 °F 51% 29.91 in 10.0 mi SSW 10.4 mph - N/A   Mostly Cloudy
1:54 PM 55.9 °F - 39.0 °F 53% 29.91 in 10.0 mi SSW 8.1 mph 18.4 mph N/A   Mostly Cloudy
2:54 PM 57.0 °F - 39.9 °F 53% 29.90 in 10.0 mi SE 9.2 mph - N/A   Mostly Cloudy
3:54 PM 55.9 °F - 37.9 °F 51% 29.89 in 10.0 mi SE 5.8 mph - 0.00 in   Overcast
4:24 PM 48.2 °F - 42.8 °F 82% 29.90 in 6.0 mi NW 13.8 mph 29.9 mph 0.00 in Rain Rain
4:54 PM 48.0 °F - 43.0 °F 83% 29.94 in 7.0 mi West 11.5 mph 16.1 mph 0.03 in Rain Heavy Rain
5:13 PM 48.2 °F - 42.8 °F 82% 29.94 in 5.0 mi SW 5.8 mph - 0.04 in Rain Rain
5:42 PM 48.2 °F - 42.8 °F 82% 29.92 in 9.0 mi NE 3.5 mph - 0.07 in   Overcast
5:54 PM 48.9 °F - 43.0 °F 80% 29.93 in 10.0 mi Calm Calm - 0.07 in   Overcast
6:54 PM 48.9 °F - 45.0 °F 86% 29.92 in 10.0 mi ENE 6.9 mph - N/A   Mostly Cloudy
7:54 PM 48.0 °F - 44.1 °F 86% 29.93 in 10.0 mi East 5.8 mph - N/A   Mostly Cloudy
8:54 PM 48.0 °F - 43.0 °F 83% 29.94 in 10.0 mi Calm Calm - N/A   Mostly Cloudy
9:54 PM 46.9 °F - 43.0 °F 86% 29.93 in 10.0 mi Calm Calm - N/A   Mostly Cloudy
10:54 PM 48.0 °F - 44.1 °F 86% 29.93 in 10.0 mi Calm Calm - N/A   Overcast
11:54 PM 46.9 °F - 44.1 °F 90% 29.93 in 9.0 mi Calm Calm - 0.00 in Rain Light Rain